Location: Hains Lake
(37.8540°N, 99.8578°W)
Time: 19:37:18
(UTC+00:00)

Courier 1B Rocket - Pass Details

Date: 25 April 2021
Orbit: 920 x 1202 km, 28.2° (Epoch: 05 May)

Event Time Altitude Azimuth Distance (km) Brightness Sun altitude
Rises 03:32:54 0° 260° (W) 3,667 8.6 -23.1°
Reaches altitude 10° 03:35:45 10° 251° (WSW) 2,757 7.7 -23.5°
Maximum altitude 03:41:37 33° 190° (S) 1,685 5.9 -24.4°
Enters shadow 03:41:53 33° 186° (S) 1,691 5.9 -24.4°
